Time,TemperatureF,DewpointF,PressureIn,WindDirection,WindDirectionDegrees,WindSpeedMPH,WindSpeedGustMPH,Humidity,HourlyPrecipIn,Conditions,Clouds,dailyrainin,SoftwareType,DateUTC
2013-08-17 00:01:00,83.1,78.1,30.05,ESE,110,0.0,5.0,85,0.00,,,0.00,meteohub,2013-08-17 04:01:00,
2013-08-17 00:02:00,83.1,78.1,30.04,ESE,110,0.0,5.0,85,0.00,,,0.00,meteohub,2013-08-17 04:02:00,
2013-08-17 00:07:00,83.1,78.4,30.04,ENE,63,0.0,5.0,86,0.00,,,0.00,meteohub,2013-08-17 04:07:00,
2013-08-17 00:12:00,83.1,78.1,30.04,ESE,104,0.0,5.0,85,0.00,,,0.00,meteohub,2013-08-17 04:12:00,
2013-08-17 00:17:00,82.9,77.9,30.04,East,97,0.0,4.0,85,0.00,,,0.00,meteohub,2013-08-17 04:17:00,
2013-08-17 00:22:00,82.9,78.3,30.04,ESE,121,0.0,3.0,86,0.00,,,0.00,meteohub,2013-08-17 04:22:00,
2013-08-17 00:27:00,82.9,78.3,30.05,ESE,107,1.0,3.0,86,0.00,,,0.00,meteohub,2013-08-17 04:27:00,
2013-08-17 00:32:00,82.9,78.3,30.04,South,169,0.0,2.0,86,0.00,,,0.00,meteohub,2013-08-17 04:32:00,
2013-08-17 00:37:00,82.9,78.3,30.04,East,85,0.0,5.0,86,0.00,,,0.00,meteohub,2013-08-17 04:37:00,
2013-08-17 00:42:00,82.9,78.3,30.04,NE,54,0.0,5.0,86,0.00,,,0.00,meteohub,2013-08-17 04:42:00,
2013-08-17 00:47:00,82.8,78.1,30.04,SSE,148,0.0,5.0,86,0.00,,,0.00,meteohub,2013-08-17 04:47:00,
2013-08-17 00:52:00,82.8,78.1,30.04,SE,142,1.0,3.0,86,0.00,,,0.00,meteohub,2013-08-17 04:52:00,
2013-08-17 00:57:00,82.8,78.1,30.04,ESE,105,0.0,3.0,86,0.00,,,0.00,meteohub,2013-08-17 04:57:00,
2013-08-17 01:02:00,82.8,78.1,30.04,SE,126,0.0,3.0,86,0.00,,,0.00,meteohub,2013-08-17 05:02:00,
2013-08-17 01:07:00,82.8,78.1,30.04,East,98,1.0,3.0,86,0.00,,,0.00,meteohub,2013-08-17 05:07:00,
2013-08-17 01:12:00,82.8,78.1,30.04,East,86,0.0,5.0,86,0.00,,,0.00,meteohub,2013-08-17 05:12:00,
2013-08-17 01:17:00,82.8,78.1,30.04,SE,129,0.0,5.0,86,0.00,,,0.00,meteohub,2013-08-17 05:17:00,
2013-08-17 01:22:00,82.8,78.1,30.03,ESE,122,0.0,5.0,86,0.00,,,0.00,meteohub,2013-08-17 05:22:00,
2013-08-17 01:27:00,82.8,78.1,30.03,East,88,0.0,4.0,86,0.00,,,0.00,meteohub,2013-08-17 05:27:00,
2013-08-17 01:32:00,82.8,78.1,30.03,North,0,0.0,4.0,86,0.00,,,0.00,meteohub,2013-08-17 05:32:00,
2013-08-17 01:37:00,82.8,78.1,30.03,North,10,0.0,3.0,86,0.00,,,0.00,meteohub,2013-08-17 05:37:00,
2013-08-17 01:42:00,82.8,78.4,30.03,SSE,156,0.0,3.0,87,0.00,,,0.00,meteohub,2013-08-17 05:42:00,
2013-08-17 01:47:00,82.6,78.3,30.03,SE,136,0.0,2.0,87,0.00,,,0.00,meteohub,2013-08-17 05:47:00,
2013-08-17 01:52:00,82.6,78.3,30.03,South,172,0.0,4.0,87,0.00,,,0.00,meteohub,2013-08-17 05:52:00,
2013-08-17 01:57:00,82.6,78.3,30.03,East,98,0.0,4.0,87,0.00,,,0.00,meteohub,2013-08-17 05:57:00,
2013-08-17 02:04:00,82.4,78.1,30.03,ESE,107,0.0,4.0,87,0.00,,,0.00,meteohub,2013-08-17 06:04:00,
2013-08-17 02:09:00,82.4,78.1,30.03,SE,139,1.0,1.0,87,0.00,,,0.00,meteohub,2013-08-17 06:09:00,
2013-08-17 02:14:00,82.4,78.1,30.03,East,101,0.0,4.0,87,0.00,,,0.00,meteohub,2013-08-17 06:14:00,
2013-08-17 02:19:00,82.4,78.1,30.03,ESE,111,0.0,4.0,87,0.00,,,0.00,meteohub,2013-08-17 06:19:00,
2013-08-17 02:24:00,82.2,77.9,30.03,East,87,0.0,4.0,87,0.00,,,0.00,meteohub,2013-08-17 06:24:00,
2013-08-17 02:29:00,82.2,77.5,30.03,SSE,167,0.0,4.0,86,0.00,,,0.00,meteohub,2013-08-17 06:29:00,
2013-08-17 02:34:00,82.2,77.5,30.03,SSE,157,0.0,4.0,86,0.00,,,0.00,meteohub,2013-08-17 06:34:00,
2013-08-17 02:39:00,82.2,77.5,30.03,SSE,159,0.0,4.0,86,0.00,,,0.00,meteohub,2013-08-17 06:39:00,
2013-08-17 02:44:00,82.2,77.5,30.03,SSE,159,0.0,4.0,86,0.00,,,0.00,meteohub,2013-08-17 06:44:00,
2013-08-17 02:49:00,82.2,77.5,30.03,SE,138,0.0,4.0,86,0.00,,,0.00,meteohub,2013-08-17 06:49:00,
2013-08-17 02:54:00,82.2,77.5,30.03,ESE,121,0.0,2.0,86,0.00,,,0.00,meteohub,2013-08-17 06:54:00,
2013-08-17 02:59:00,82.2,77.5,30.03,SE,143,0.0,1.0,86,0.00,,,0.00,meteohub,2013-08-17 06:59:00,
2013-08-17 03:04:00,82.2,77.5,30.03,ESE,123,0.0,2.0,86,0.00,,,0.00,meteohub,2013-08-17 07:04:00,
2013-08-17 03:09:00,82.0,77.4,30.02,SE,146,0.0,2.0,86,0.00,,,0.00,meteohub,2013-08-17 07:09:00,
2013-08-17 03:14:00,82.0,77.4,30.02,East,88,0.0,3.0,86,0.00,,,0.00,meteohub,2013-08-17 07:14:00,
2013-08-17 03:19:00,82.0,77.4,30.02,East,90,0.0,3.0,86,0.00,,,0.00,meteohub,2013-08-17 07:19:00,
2013-08-17 03:24:00,82.0,77.4,30.02,NNE,15,0.0,3.0,86,0.00,,,0.00,meteohub,2013-08-17 07:24:00,
2013-08-17 03:29:00,82.2,77.5,30.01,East,82,0.0,3.0,86,0.00,,,0.00,meteohub,2013-08-17 07:29:00,
2013-08-17 03:34:00,82.2,77.5,30.01,ESE,110,0.0,3.0,86,0.00,,,0.00,meteohub,2013-08-17 07:34:00,
2013-08-17 03:39:00,82.2,77.5,30.01,SE,134,2.0,3.0,86,0.00,,,0.00,meteohub,2013-08-17 07:39:00,
2013-08-17 03:44:00,82.2,77.5,30.01,ENE,75,0.0,3.0,86,0.00,,,0.00,meteohub,2013-08-17 07:44:00,
2013-08-17 03:49:00,82.2,77.5,30.01,SSE,154,0.0,3.0,86,0.00,,,0.00,meteohub,2013-08-17 07:49:00,
2013-08-17 03:54:00,82.0,77.4,30.01,SSW,211,0.0,4.0,86,0.00,,,0.00,meteohub,2013-08-17 07:54:00,
2013-08-17 03:59:00,82.0,77.4,30.01,SE,132,0.0,4.0,86,0.00,,,0.00,meteohub,2013-08-17 07:59:00,
2013-08-17 04:04:00,82.0,77.4,30.01,SE,143,0.0,4.0,86,0.00,,,0.00,meteohub,2013-08-17 08:04:00,
2013-08-17 04:09:00,82.0,77.7,30.01,East,95,0.0,3.0,87,0.00,,,0.00,meteohub,2013-08-17 08:09:00,
2013-08-17 04:14:00,81.9,77.2,30.01,East,96,0.0,3.0,86,0.00,,,0.00,meteohub,2013-08-17 08:14:00,
2013-08-17 04:19:00,81.9,77.2,30.01,ESE,123,0.0,3.0,86,0.00,,,0.00,meteohub,2013-08-17 08:19:00,
2013-08-17 04:24:00,81.9,77.5,30.01,SE,134,0.0,3.0,87,0.00,,,0.00,meteohub,2013-08-17 08:24:00,
2013-08-17 04:29:00,81.9,77.5,30.01,ENE,73,0.0,3.0,87,0.00,,,0.00,meteohub,2013-08-17 08:29:00,
2013-08-17 04:34:00,82.0,77.7,30.02,ESE,109,0.0,2.0,87,0.00,,,0.00,meteohub,2013-08-17 08:34:00,
2013-08-17 04:39:00,82.0,77.4,30.01,East,84,0.0,3.0,86,0.00,,,0.00,meteohub,2013-08-17 08:39:00,
2013-08-17 04:44:00,82.0,77.4,30.02,SE,132,4.0,4.0,86,0.00,,,0.00,meteohub,2013-08-17 08:44:00,
2013-08-17 04:49:00,82.0,77.4,30.01,ENE,60,1.0,5.0,86,0.00,,,0.00,meteohub,2013-08-17 08:49:00,
2013-08-17 04:54:00,82.0,77.4,30.01,ENE,73,0.0,5.0,86,0.00,,,0.00,meteohub,2013-08-17 08:54:00,
2013-08-17 04:59:00,82.0,77.4,30.01,ESE,121,0.0,5.0,86,0.00,,,0.00,meteohub,2013-08-17 08:59:00,
2013-08-17 05:04:00,82.0,77.4,30.02,SE,131,0.0,4.0,86,0.00,,,0.00,meteohub,2013-08-17 09:04:00,
2013-08-17 05:09:00,82.0,77.4,30.02,SE,142,0.0,4.0,86,0.00,,,0.00,meteohub,2013-08-17 09:09:00,
2013-08-17 05:14:00,82.0,77.4,30.02,SE,144,0.0,4.0,86,0.00,,,0.00,meteohub,2013-08-17 09:14:00,
2013-08-17 05:19:00,82.0,77.4,30.02,ESE,105,1.0,4.0,86,0.00,,,0.00,meteohub,2013-08-17 09:19:00,
2013-08-17 05:24:00,82.0,77.4,30.02,SE,146,0.0,5.0,86,0.00,,,0.00,meteohub,2013-08-17 09:24:00,
2013-08-17 05:29:00,82.0,77.0,30.02,ESE,109,1.0,5.0,85,0.00,,,0.00,meteohub,2013-08-17 09:29:00,
2013-08-17 05:34:00,82.0,76.6,30.02,SE,146,0.0,5.0,84,0.00,,,0.00,meteohub,2013-08-17 09:34:00,
2013-08-17 05:39:00,82.0,77.0,30.01,SSE,159,0.0,4.0,85,0.00,,,0.00,meteohub,2013-08-17 09:39:00,
2013-08-17 05:44:00,82.0,77.0,30.01,East,99,0.0,3.0,85,0.00,,,0.00,meteohub,2013-08-17 09:44:00,
2013-08-17 05:49:00,81.9,76.8,30.01,SE,141,0.0,3.0,85,0.00,,,0.00,meteohub,2013-08-17 09:49:00,
2013-08-17 05:54:00,81.9,77.2,30.01,East,98,0.0,3.0,86,0.00,,,0.00,meteohub,2013-08-17 09:54:00,
2013-08-17 05:59:00,81.9,77.2,30.01,East,93,0.0,4.0,86,0.00,,,0.00,meteohub,2013-08-17 09:59:00,
2013-08-17 06:04:00,81.7,77.0,30.02,South,183,3.0,4.0,86,0.00,,,0.00,meteohub,2013-08-17 10:04:00,
2013-08-17 06:09:00,81.9,77.2,30.02,SSE,157,0.0,4.0,86,0.00,,,0.00,meteohub,2013-08-17 10:09:00,
2013-08-17 06:14:00,81.9,77.2,30.02,SSE,164,0.0,4.0,86,0.00,,,0.00,meteohub,2013-08-17 10:14:00,
2013-08-17 06:19:00,81.7,76.6,30.02,ESE,119,0.0,4.0,85,0.00,,,0.00,meteohub,2013-08-17 10:19:00,
2013-08-17 06:24:00,81.7,76.6,30.02,SE,146,2.0,4.0,85,0.00,,,0.00,meteohub,2013-08-17 10:24:00,
2013-08-17 06:29:00,81.9,76.8,30.02,SE,138,0.0,5.0,85,0.00,,,0.00,meteohub,2013-08-17 10:29:00,
2013-08-17 06:34:00,81.9,76.8,30.02,South,169,0.0,5.0,85,0.00,,,0.00,meteohub,2013-08-17 10:34:00,
2013-08-17 06:39:00,81.9,76.8,30.02,SSE,168,0.0,5.0,85,0.00,,,0.00,meteohub,2013-08-17 10:39:00,
2013-08-17 06:44:00,81.9,77.2,30.02,SE,144,1.0,4.0,86,0.00,,,0.00,meteohub,2013-08-17 10:44:00,
2013-08-17 06:49:00,81.9,76.8,30.02,SE,125,0.0,4.0,85,0.00,,,0.00,meteohub,2013-08-17 10:49:00,
2013-08-17 06:54:00,81.9,76.8,30.02,SE,144,0.0,3.0,85,0.00,,,0.00,meteohub,2013-08-17 10:54:00,
2013-08-17 06:59:00,81.9,76.8,30.02,SSE,150,2.0,4.0,85,0.00,,,0.00,meteohub,2013-08-17 10:59:00,
2013-08-17 07:04:00,81.9,76.8,30.02,ESE,118,1.0,4.0,85,0.00,,,0.00,meteohub,2013-08-17 11:04:00,
2013-08-17 07:09:00,81.9,76.8,30.02,SE,134,0.0,5.0,85,0.00,,,0.00,meteohub,2013-08-17 11:09:00,
2013-08-17 07:14:00,81.9,76.5,30.03,SE,129,2.0,5.0,84,0.00,,,0.00,meteohub,2013-08-17 11:14:00,
2013-08-17 07:19:00,82.0,76.6,30.03,ESE,109,0.0,5.0,84,0.00,,,0.00,meteohub,2013-08-17 11:19:00,
2013-08-17 07:24:00,82.0,76.6,30.03,ESE,123,0.0,5.0,84,0.00,,,0.00,meteohub,2013-08-17 11:24:00,
2013-08-17 07:29:00,82.0,76.3,30.03,SE,138,1.0,5.0,83,0.00,,,0.00,meteohub,2013-08-17 11:29:00,
2013-08-17 07:34:00,82.2,76.5,30.03,SE,143,0.0,5.0,83,0.00,,,0.00,meteohub,2013-08-17 11:34:00,
2013-08-17 07:39:00,82.2,76.5,30.03,SSE,156,0.0,5.0,83,0.00,,,0.00,meteohub,2013-08-17 11:39:00,
2013-08-17 07:44:00,82.4,77.0,30.03,South,174,0.0,5.0,84,0.00,,,0.00,meteohub,2013-08-17 11:44:00,
2013-08-17 07:49:00,82.6,76.8,30.04,SSE,148,0.0,4.0,83,0.00,,,0.00,meteohub,2013-08-17 11:49:00,
2013-08-17 07:54:00,82.8,77.0,30.04,SSE,167,3.0,6.0,83,0.00,,,0.00,meteohub,2013-08-17 11:54:00,
2013-08-17 07:59:00,82.9,77.2,30.04,SSE,166,0.0,7.0,83,0.00,,,0.00,meteohub,2013-08-17 11:59:00,
2013-08-17 08:04:00,83.1,77.4,30.04,SSE,156,1.0,7.0,83,0.00,,,0.00,meteohub,2013-08-17 12:04:00,
2013-08-17 08:06:00,83.1,77.4,30.04,ESE,122,3.0,7.0,83,0.00,,,0.00,meteohub,2013-08-17 12:06:00,
2013-08-17 08:11:00,83.5,77.4,30.04,East,93,3.0,5.0,82,0.00,,,0.00,meteohub,2013-08-17 12:11:00,
2013-08-17 08:16:00,83.8,77.7,30.04,SSE,151,0.0,5.0,82,0.00,,,0.00,meteohub,2013-08-17 12:16:00,
2013-08-17 08:21:00,83.8,77.7,30.04,SSE,147,0.0,5.0,82,0.00,,,0.00,meteohub,2013-08-17 12:21:00,
2013-08-17 08:26:00,83.7,77.5,30.04,SSE,150,0.0,5.0,82,0.00,,,0.00,meteohub,2013-08-17 12:26:00,
2013-08-17 08:31:00,83.7,77.9,30.05,ESE,121,4.0,5.0,83,0.00,,,0.00,meteohub,2013-08-17 12:31:00,
2013-08-17 08:36:00,83.5,77.7,30.05,SE,125,0.0,5.0,83,0.00,,,0.00,meteohub,2013-08-17 12:36:00,
2013-08-17 08:41:00,83.7,77.9,30.05,SE,125,1.0,5.0,83,0.00,,,0.00,meteohub,2013-08-17 12:41:00,
2013-08-17 08:46:00,83.8,78.1,30.05,NNE,32,0.0,5.0,83,0.00,,,0.00,meteohub,2013-08-17 12:46:00,
2013-08-17 08:51:00,84.0,77.9,30.05,SE,134,0.0,2.0,82,0.00,,,0.00,meteohub,2013-08-17 12:51:00,
2013-08-17 08:56:00,84.2,78.4,30.05,SSE,158,0.0,2.0,83,0.00,,,0.00,meteohub,2013-08-17 12:56:00,
2013-08-17 09:01:00,84.6,78.8,30.05,SSE,148,1.0,3.0,83,0.00,,,0.00,meteohub,2013-08-17 13:01:00,
2013-08-17 09:06:00,85.3,79.2,30.05,SE,134,0.0,5.0,82,0.00,,,0.00,meteohub,2013-08-17 13:06:00,
2013-08-17 09:11:00,86.0,79.2,30.05,SE,132,1.0,5.0,80,0.00,,,0.00,meteohub,2013-08-17 13:11:00,
2013-08-17 09:16:00,86.2,79.3,30.05,South,186,4.0,7.0,80,0.00,,,0.00,meteohub,2013-08-17 13:16:00,
2013-08-17 09:21:00,86.5,79.7,30.05,ESE,105,2.0,7.0,80,0.00,,,0.00,meteohub,2013-08-17 13:21:00,
2013-08-17 09:26:00,86.9,79.5,30.05,NNE,17,3.0,7.0,79,0.00,,,0.00,meteohub,2013-08-17 13:26:00,
2013-08-17 09:31:00,86.7,79.3,30.05,East,91,0.0,6.0,79,0.00,,,0.00,meteohub,2013-08-17 13:31:00,
2013-08-17 09:36:00,86.7,79.3,30.06,SE,126,2.0,6.0,79,0.00,,,0.00,meteohub,2013-08-17 13:36:00,
2013-08-17 09:41:00,87.1,79.7,30.06,South,188,2.0,6.0,79,0.00,,,0.00,meteohub,2013-08-17 13:41:00,
2013-08-17 09:46:00,87.3,79.5,30.06,SE,144,1.0,6.0,78,0.00,,,0.00,meteohub,2013-08-17 13:46:00,
2013-08-17 09:51:00,86.5,79.2,30.06,SE,133,0.0,7.0,79,0.00,,,0.00,meteohub,2013-08-17 13:51:00,
2013-08-17 09:56:00,86.4,79.0,30.06,South,173,4.0,10.0,79,0.00,,,0.00,meteohub,2013-08-17 13:56:00,
2013-08-17 10:01:00,86.7,78.3,30.06,SE,139,4.0,10.0,76,0.00,,,0.00,meteohub,2013-08-17 14:01:00,
2013-08-17 10:06:00,87.1,78.6,30.06,ESE,109,1.0,10.0,76,0.00,,,0.00,meteohub,2013-08-17 14:06:00,
2013-08-17 10:11:00,87.3,78.8,30.06,ENE,59,3.0,6.0,76,0.00,,,0.00,meteohub,2013-08-17 14:11:00,
2013-08-17 10:16:00,87.3,78.4,30.06,ESE,103,1.0,9.0,75,0.00,,,0.00,meteohub,2013-08-17 14:16:00,
2013-08-17 10:21:00,87.4,78.6,30.06,ENE,77,3.0,9.0,75,0.00,,,0.00,meteohub,2013-08-17 14:21:00,
2013-08-17 10:26:00,88.0,78.6,30.06,SSW,196,0.0,9.0,74,0.00,,,0.00,meteohub,2013-08-17 14:26:00,
2013-08-17 10:31:00,88.5,78.8,30.06,ESE,107,0.0,6.0,73,0.00,,,0.00,meteohub,2013-08-17 14:31:00,
2013-08-17 10:36:00,88.5,79.2,30.07,South,171,2.0,6.0,74,0.00,,,0.00,meteohub,2013-08-17 14:36:00,
2013-08-17 10:41:00,88.9,79.2,30.07,SE,144,1.0,6.0,73,0.00,,,0.00,meteohub,2013-08-17 14:41:00,
2013-08-17 10:46:00,88.9,78.6,30.07,ESE,120,4.0,6.0,72,0.00,,,0.00,meteohub,2013-08-17 14:46:00,
2013-08-17 10:51:00,89.1,78.8,30.07,South,189,3.0,6.0,72,0.00,,,0.00,meteohub,2013-08-17 14:51:00,
2013-08-17 10:56:00,89.1,77.2,30.07,ESE,105,3.0,6.0,68,0.00,,,0.00,meteohub,2013-08-17 14:56:00,
2013-08-17 11:01:00,89.2,78.1,30.07,SE,131,1.0,7.0,70,0.00,,,0.00,meteohub,2013-08-17 15:01:00,
2013-08-17 11:06:00,89.4,78.3,30.07,ESE,112,0.0,7.0,70,0.00,,,0.00,meteohub,2013-08-17 15:06:00,
2013-08-17 11:11:00,89.8,79.2,30.07,SSE,157,3.0,7.0,71,0.00,,,0.00,meteohub,2013-08-17 15:11:00,
2013-08-17 11:16:00,89.4,79.2,30.07,East,99,0.0,8.0,72,0.00,,,0.00,meteohub,2013-08-17 15:16:00,
2013-08-17 11:21:00,89.4,79.2,30.07,ENE,75,1.0,8.0,72,0.00,,,0.00,meteohub,2013-08-17 15:21:00,
2013-08-17 11:26:00,89.4,79.2,30.07,SE,140,1.0,8.0,72,0.00,,,0.00,meteohub,2013-08-17 15:26:00,
2013-08-17 11:31:00,89.4,79.2,30.07,SSE,155,1.0,8.0,72,0.00,,,0.00,meteohub,2013-08-17 15:31:00,
2013-08-17 11:36:00,89.4,79.2,30.07,ESE,115,1.0,8.0,72,0.00,,,0.00,meteohub,2013-08-17 15:36:00,
2013-08-17 11:41:00,89.4,79.2,30.07,SE,131,5.0,7.0,72,0.00,,,0.00,meteohub,2013-08-17 15:41:00,
2013-08-17 11:46:00,89.8,79.2,30.07,ESE,118,2.0,7.0,71,0.00,,,0.00,meteohub,2013-08-17 15:46:00,
2013-08-17 11:51:00,89.8,79.2,30.07,NW,324,2.0,7.0,71,0.00,,,0.00,meteohub,2013-08-17 15:51:00,
2013-08-17 11:56:00,89.4,78.8,30.07,ESE,111,0.0,7.0,71,0.00,,,0.00,meteohub,2013-08-17 15:56:00,
2013-08-17 12:01:00,89.6,79.3,30.07,SSE,159,2.0,7.0,72,0.00,,,0.00,meteohub,2013-08-17 16:01:00,
2013-08-17 12:06:00,89.4,78.8,30.07,SE,140,3.0,7.0,71,0.00,,,0.00,meteohub,2013-08-17 16:06:00,
2013-08-17 12:11:00,89.4,79.2,30.07,SE,139,6.0,8.0,72,0.00,,,0.00,meteohub,2013-08-17 16:11:00,
2013-08-17 12:16:00,89.6,79.7,30.07,ENE,71,1.0,9.0,73,0.00,,,0.00,meteohub,2013-08-17 16:16:00,
2013-08-17 12:21:00,89.8,79.5,30.07,SE,132,0.0,9.0,72,0.00,,,0.00,meteohub,2013-08-17 16:21:00,
2013-08-17 12:26:00,90.0,79.7,30.06,ESE,123,1.0,9.0,72,0.00,,,0.00,meteohub,2013-08-17 16:26:00,
2013-08-17 12:31:00,89.8,79.5,30.06,West,265,3.0,7.0,72,0.00,,,0.00,meteohub,2013-08-17 16:31:00,
2013-08-17 12:36:00,89.4,79.2,30.06,SSE,158,2.0,8.0,72,0.00,,,0.00,meteohub,2013-08-17 16:36:00,
2013-08-17 12:41:00,89.2,79.0,30.06,NE,49,1.0,8.0,72,0.00,,,0.00,meteohub,2013-08-17 16:41:00,
2013-08-17 12:46:00,89.4,79.2,30.06,SE,143,1.0,8.0,72,0.00,,,0.00,meteohub,2013-08-17 16:46:00,
2013-08-17 12:51:00,89.2,79.0,30.06,ESE,111,2.0,8.0,72,0.00,,,0.00,meteohub,2013-08-17 16:51:00,
2013-08-17 12:56:00,89.2,79.5,30.06,South,169,4.0,8.0,73,0.00,,,0.00,meteohub,2013-08-17 16:56:00,
2013-08-17 13:01:00,89.6,79.3,30.05,ENE,57,5.0,8.0,72,0.00,,,0.00,meteohub,2013-08-17 17:01:00,
2013-08-17 13:06:00,89.8,79.5,30.05,SE,132,1.0,9.0,72,0.00,,,0.00,meteohub,2013-08-17 17:06:00,
2013-08-17 13:11:00,90.1,79.5,30.05,SE,126,2.0,9.0,71,0.00,,,0.00,meteohub,2013-08-17 17:11:00,
2013-08-17 13:16:00,90.0,79.7,30.05,NE,44,1.0,9.0,72,0.00,,,0.00,meteohub,2013-08-17 17:16:00,
2013-08-17 13:21:00,90.1,79.5,30.04,SSE,162,1.0,8.0,71,0.00,,,0.00,meteohub,2013-08-17 17:21:00,
2013-08-17 13:26:00,90.3,79.2,30.05,North,9,0.0,8.0,70,0.00,,,0.00,meteohub,2013-08-17 17:26:00,
2013-08-17 13:31:00,90.9,79.7,30.05,SSE,151,3.0,8.0,70,0.00,,,0.00,meteohub,2013-08-17 17:31:00,
2013-08-17 13:36:00,90.9,80.1,30.05,SSE,153,0.0,7.0,71,0.00,,,0.00,meteohub,2013-08-17 17:36:00,
2013-08-17 13:41:00,90.5,79.0,30.05,East,86,6.0,9.0,69,0.00,,,0.00,meteohub,2013-08-17 17:41:00,
2013-08-17 13:46:00,90.3,79.2,30.04,East,86,1.0,9.0,70,0.00,,,0.00,meteohub,2013-08-17 17:46:00,
2013-08-17 13:51:00,90.0,79.3,30.04,NE,53,0.0,9.0,71,0.00,,,0.00,meteohub,2013-08-17 17:51:00,
2013-08-17 13:56:00,90.0,79.3,30.04,SSE,159,0.0,7.0,71,0.00,,,0.00,meteohub,2013-08-17 17:56:00,
2013-08-17 14:01:00,89.4,78.8,30.04,SE,145,2.0,9.0,71,0.00,,,0.00,meteohub,2013-08-17 18:01:00,
2013-08-17 14:06:00,89.2,78.1,30.04,SE,141,3.0,10.0,70,0.00,,,0.00,meteohub,2013-08-17 18:06:00,
2013-08-17 14:11:00,89.6,79.0,30.04,East,98,0.0,10.0,71,0.00,,,0.00,meteohub,2013-08-17 18:11:00,
2013-08-17 14:16:00,89.8,78.6,30.04,South,173,4.0,10.0,70,0.00,,,0.00,meteohub,2013-08-17 18:16:00,
2013-08-17 14:21:00,89.8,78.6,30.04,South,190,4.0,10.0,70,0.00,,,0.00,meteohub,2013-08-17 18:21:00,
2013-08-17 14:26:00,89.8,79.2,30.04,SE,142,2.0,8.0,71,0.00,,,0.00,meteohub,2013-08-17 18:26:00,
2013-08-17 14:31:00,90.0,78.8,30.04,NE,55,3.0,8.0,70,0.00,,,0.00,meteohub,2013-08-17 18:31:00,
2013-08-17 14:36:00,90.1,79.0,30.04,SSW,198,3.0,8.0,70,0.00,,,0.00,meteohub,2013-08-17 18:36:00,
2013-08-17 14:41:00,90.1,78.6,30.04,South,172,1.0,8.0,69,0.00,,,0.00,meteohub,2013-08-17 18:41:00,
2013-08-17 14:46:00,90.0,79.3,30.03,SSE,160,2.0,9.0,71,0.00,,,0.00,meteohub,2013-08-17 18:46:00,
2013-08-17 14:51:00,90.7,79.2,30.03,SSE,150,1.0,9.0,69,0.00,,,0.00,meteohub,2013-08-17 18:51:00,
2013-08-17 14:56:00,91.4,79.7,30.03,SSE,161,1.0,9.0,69,0.00,,,0.00,meteohub,2013-08-17 18:56:00,
2013-08-17 15:01:00,91.0,79.5,30.03,SE,131,4.0,10.0,69,0.00,,,0.00,meteohub,2013-08-17 19:01:00,
2013-08-17 15:06:00,90.3,79.2,30.03,ESE,123,2.0,10.0,70,0.00,,,0.00,meteohub,2013-08-17 19:06:00,
2013-08-17 15:11:00,90.1,79.0,30.03,ESE,116,4.0,10.0,70,0.00,,,0.00,meteohub,2013-08-17 19:11:00,
2013-08-17 15:16:00,90.0,79.3,30.02,SSE,154,1.0,8.0,71,0.00,,,0.00,meteohub,2013-08-17 19:16:00,
2013-08-17 15:21:00,90.3,79.7,30.02,East,94,3.0,8.0,71,0.00,,,0.00,meteohub,2013-08-17 19:21:00,
2013-08-17 15:26:00,90.1,78.6,30.02,SE,128,1.0,9.0,69,0.00,,,0.00,meteohub,2013-08-17 19:26:00,
2013-08-17 15:31:00,90.3,78.8,30.02,ESE,109,0.0,9.0,69,0.00,,,0.00,meteohub,2013-08-17 19:31:00,
2013-08-17 15:36:00,90.5,78.4,30.02,NE,41,1.0,9.0,68,0.00,,,0.00,meteohub,2013-08-17 19:36:00,
2013-08-17 15:41:00,90.5,78.4,30.01,SSE,150,2.0,7.0,68,0.00,,,0.00,meteohub,2013-08-17 19:41:00,
2013-08-17 15:46:00,90.3,77.9,30.02,SE,137,2.0,7.0,67,0.00,,,0.00,meteohub,2013-08-17 19:46:00,
2013-08-17 15:51:00,90.1,78.6,30.02,SE,136,2.0,10.0,69,0.00,,,0.00,meteohub,2013-08-17 19:51:00,
2013-08-17 15:56:00,90.3,79.2,30.02,SSE,161,5.0,10.0,70,0.00,,,0.00,meteohub,2013-08-17 19:56:00,
2013-08-17 16:01:00,90.1,79.0,30.02,SE,145,4.0,10.0,70,0.00,,,0.00,meteohub,2013-08-17 20:01:00,
2013-08-17 16:06:00,90.0,78.8,30.02,South,179,2.0,8.0,70,0.00,,,0.00,meteohub,2013-08-17 20:06:00,
2013-08-17 16:11:00,89.6,79.0,30.01,South,183,0.0,8.0,71,0.00,,,0.00,meteohub,2013-08-17 20:11:00,
2013-08-17 16:16:00,89.4,79.2,30.01,East,88,2.0,8.0,72,0.00,,,0.00,meteohub,2013-08-17 20:16:00,
2013-08-17 16:21:00,88.9,79.2,30.01,SE,138,0.0,8.0,73,0.00,,,0.00,meteohub,2013-08-17 20:21:00,
2013-08-17 16:26:00,88.9,79.5,30.01,SSE,152,2.0,8.0,74,0.00,,,0.00,meteohub,2013-08-17 20:26:00,
2013-08-17 16:31:00,89.1,79.7,30.01,East,82,0.0,8.0,74,0.00,,,0.00,meteohub,2013-08-17 20:31:00,
2013-08-17 16:36:00,89.1,79.3,30.01,ENE,63,1.0,8.0,73,0.00,,,0.00,meteohub,2013-08-17 20:36:00,
2013-08-17 16:41:00,89.2,79.9,30.01,South,173,3.0,8.0,74,0.00,,,0.00,meteohub,2013-08-17 20:41:00,
2013-08-17 16:46:00,89.1,79.7,30.01,SW,219,5.0,8.0,74,0.00,,,0.00,meteohub,2013-08-17 20:46:00,
2013-08-17 16:51:00,88.7,79.0,30.01,ESE,119,0.0,7.0,73,0.00,,,0.00,meteohub,2013-08-17 20:51:00,
2013-08-17 16:56:00,88.5,78.8,30.01,SE,142,4.0,7.0,73,0.00,,,0.00,meteohub,2013-08-17 20:56:00,
2013-08-17 17:01:00,88.9,79.2,30.01,NE,42,0.0,6.0,73,0.00,,,0.00,meteohub,2013-08-17 21:01:00,
2013-08-17 17:06:00,89.1,78.8,30.01,SE,136,3.0,8.0,72,0.00,,,0.00,meteohub,2013-08-17 21:06:00,
2013-08-17 17:11:00,88.9,79.2,30.01,SSE,147,3.0,8.0,73,0.00,,,0.00,meteohub,2013-08-17 21:11:00,
2013-08-17 17:16:00,88.9,79.5,30.01,SSE,159,4.0,8.0,74,0.00,,,0.00,meteohub,2013-08-17 21:16:00,
2013-08-17 17:21:00,89.1,78.4,30.01,ESE,117,7.0,7.0,71,0.00,,,0.00,meteohub,2013-08-17 21:21:00,
2013-08-17 17:26:00,88.5,78.3,30.01,South,186,4.0,8.0,72,0.00,,,0.00,meteohub,2013-08-17 21:26:00,
2013-08-17 17:31:00,88.5,78.8,30.01,SW,224,0.0,8.0,73,0.00,,,0.00,meteohub,2013-08-17 21:31:00,
2013-08-17 17:36:00,88.9,79.2,30.01,SSE,155,3.0,8.0,73,0.00,,,0.00,meteohub,2013-08-17 21:36:00,
2013-08-17 17:41:00,88.5,78.8,30.01,SSE,147,2.0,6.0,73,0.00,,,0.00,meteohub,2013-08-17 21:41:00,
2013-08-17 17:46:00,88.3,79.0,30.01,East,88,0.0,5.0,74,0.00,,,0.00,meteohub,2013-08-17 21:46:00,
2013-08-17 17:51:00,88.2,78.8,30.01,East,98,0.0,5.0,74,0.00,,,0.00,meteohub,2013-08-17 21:51:00,
2013-08-17 17:56:00,88.0,78.6,30.01,SSE,154,0.0,6.0,74,0.00,,,0.00,meteohub,2013-08-17 21:56:00,
2013-08-17 18:01:00,87.6,78.6,30.02,ENE,60,0.0,6.0,75,0.00,,,0.00,meteohub,2013-08-17 22:01:00,
2013-08-17 18:06:00,87.6,79.2,30.01,ESE,117,0.0,6.0,76,0.00,,,0.00,meteohub,2013-08-17 22:06:00,
2013-08-17 18:11:00,87.6,79.2,30.01,SSE,153,2.0,6.0,76,0.00,,,0.00,meteohub,2013-08-17 22:11:00,
2013-08-17 18:16:00,87.4,78.6,30.02,SE,131,1.0,6.0,75,0.00,,,0.00,meteohub,2013-08-17 22:16:00,
2013-08-17 18:21:00,87.4,79.0,30.02,East,99,0.0,6.0,76,0.00,,,0.00,meteohub,2013-08-17 22:21:00,
2013-08-17 18:26:00,87.4,78.1,30.02,SSW,210,0.0,8.0,74,0.00,,,0.00,meteohub,2013-08-17 22:26:00,
2013-08-17 18:31:00,87.3,78.4,30.02,South,188,6.0,8.0,75,0.00,,,0.00,meteohub,2013-08-17 22:31:00,
2013-08-17 18:36:00,87.1,78.3,30.02,East,95,0.0,8.0,75,0.00,,,0.00,meteohub,2013-08-17 22:36:00,
2013-08-17 18:41:00,87.1,78.6,30.02,ENE,66,1.0,7.0,76,0.00,,,0.00,meteohub,2013-08-17 22:41:00,
2013-08-17 18:46:00,86.9,78.4,30.02,NNW,347,1.0,7.0,76,0.00,,,0.00,meteohub,2013-08-17 22:46:00,
2013-08-17 18:51:00,86.5,78.1,30.02,SE,141,0.0,4.0,76,0.00,,,0.00,meteohub,2013-08-17 22:51:00,
2013-08-17 18:56:00,86.4,78.3,30.02,ESE,105,2.0,4.0,77,0.00,,,0.00,meteohub,2013-08-17 22:56:00,
2013-08-17 19:01:00,86.0,78.3,30.03,SE,124,0.0,5.0,78,0.00,,,0.00,meteohub,2013-08-17 23:01:00,
2013-08-17 19:06:00,85.6,78.4,30.03,NE,44,3.0,5.0,79,0.00,,,0.00,meteohub,2013-08-17 23:06:00,
2013-08-17 19:11:00,85.5,78.3,30.03,ESE,105,1.0,5.0,79,0.00,,,0.00,meteohub,2013-08-17 23:11:00,
2013-08-17 19:16:00,84.9,77.7,30.03,NE,53,0.0,5.0,79,0.00,,,0.00,meteohub,2013-08-17 23:16:00,
2013-08-17 19:21:00,84.7,77.9,30.03,ENE,59,0.0,5.0,80,0.00,,,0.00,meteohub,2013-08-17 23:21:00,
2013-08-17 19:26:00,84.6,77.7,30.03,NE,42,1.0,5.0,80,0.00,,,0.00,meteohub,2013-08-17 23:26:00,
2013-08-17 19:31:00,84.4,77.5,30.03,SSE,164,1.0,3.0,80,0.00,,,0.00,meteohub,2013-08-17 23:31:00,
2013-08-17 19:36:00,84.0,77.2,30.04,SE,142,0.0,3.0,80,0.00,,,0.00,meteohub,2013-08-17 23:36:00,
2013-08-17 19:41:00,84.0,77.5,30.04,SSE,149,1.0,3.0,81,0.00,,,0.00,meteohub,2013-08-17 23:41:00,
2013-08-17 19:46:00,83.8,77.4,30.04,East,94,0.0,3.0,81,0.00,,,0.00,meteohub,2013-08-17 23:46:00,
2013-08-17 19:51:00,83.7,77.2,30.04,ESE,115,0.0,3.0,81,0.00,,,0.00,meteohub,2013-08-17 23:51:00,
2013-08-17 19:56:00,83.5,77.0,30.04,ESE,121,0.0,4.0,81,0.00,,,0.00,meteohub,2013-08-17 23:56:00,
2013-08-17 20:01:00,83.5,77.4,30.04,ENE,69,0.0,4.0,82,0.00,,,0.00,meteohub,2013-08-18 00:01:00,
2013-08-17 20:06:00,83.5,77.4,30.05,NNE,25,0.0,4.0,82,0.00,,,0.00,meteohub,2013-08-18 00:06:00,
2013-08-17 20:11:00,83.3,77.2,30.05,NE,55,0.0,3.0,82,0.00,,,0.00,meteohub,2013-08-18 00:11:00,
2013-08-17 20:16:00,83.1,77.0,30.05,ENE,63,0.0,2.0,82,0.00,,,0.00,meteohub,2013-08-18 00:16:00,
2013-08-17 20:21:00,83.1,77.0,30.05,NE,35,0.0,2.0,82,0.00,,,0.00,meteohub,2013-08-18 00:21:00,
2013-08-17 20:26:00,83.1,77.4,30.05,ENE,73,0.0,2.0,83,0.00,,,0.00,meteohub,2013-08-18 00:26:00,
2013-08-17 20:31:00,83.1,77.4,30.05,East,87,0.0,1.0,83,0.00,,,0.00,meteohub,2013-08-18 00:31:00,
2013-08-17 20:36:00,82.9,77.2,30.05,NE,49,1.0,3.0,83,0.00,,,0.00,meteohub,2013-08-18 00:36:00,
2013-08-17 20:41:00,82.9,76.8,30.05,SE,132,0.0,3.0,82,0.00,,,0.00,meteohub,2013-08-18 00:41:00,
2013-08-17 20:46:00,82.9,77.2,30.05,NE,49,0.0,3.0,83,0.00,,,0.00,meteohub,2013-08-18 00:46:00,
2013-08-17 20:51:00,82.9,77.2,30.06,East,101,0.0,3.0,83,0.00,,,0.00,meteohub,2013-08-18 00:51:00,
2013-08-17 20:56:00,82.9,76.8,30.06,South,171,0.0,3.0,82,0.00,,,0.00,meteohub,2013-08-18 00:56:00,
2013-08-17 21:01:00,82.9,76.8,30.06,ENE,61,0.0,3.0,82,0.00,,,0.00,meteohub,2013-08-18 01:01:00,
2013-08-17 21:06:00,82.9,76.8,30.06,ENE,74,1.0,3.0,82,0.00,,,0.00,meteohub,2013-08-18 01:06:00,
2013-08-17 21:11:00,83.1,77.0,30.06,NNE,17,0.0,3.0,82,0.00,,,0.00,meteohub,2013-08-18 01:11:00,
2013-08-17 21:16:00,83.1,77.0,30.07,NE,42,0.0,3.0,82,0.00,,,0.00,meteohub,2013-08-18 01:16:00,
2013-08-17 21:21:00,83.1,77.0,30.07,ESE,119,0.0,3.0,82,0.00,,,0.00,meteohub,2013-08-18 01:21:00,
2013-08-17 21:26:00,83.1,77.4,30.07,East,101,1.0,2.0,83,0.00,,,0.00,meteohub,2013-08-18 01:26:00,
2013-08-17 21:31:00,83.1,77.0,30.06,SE,130,0.0,2.0,82,0.00,,,0.00,meteohub,2013-08-18 01:31:00,
2013-08-17 21:36:00,83.1,77.4,30.06,East,95,0.0,2.0,83,0.00,,,0.00,meteohub,2013-08-18 01:36:00,
2013-08-17 21:41:00,83.1,77.4,30.07,NE,37,0.0,5.0,83,0.00,,,0.00,meteohub,2013-08-18 01:41:00,
2013-08-17 21:46:00,83.1,77.4,30.07,South,175,0.0,5.0,83,0.00,,,0.00,meteohub,2013-08-18 01:46:00,
2013-08-17 21:51:00,83.1,77.4,30.07,North,0,0.0,5.0,83,0.00,,,0.00,meteohub,2013-08-18 01:51:00,
2013-08-17 21:56:00,83.1,77.4,30.07,East,92,0.0,3.0,83,0.00,,,0.00,meteohub,2013-08-18 01:56:00,
2013-08-17 22:01:00,82.9,77.2,30.07,SE,128,0.0,3.0,83,0.00,,,0.00,meteohub,2013-08-18 02:01:00,
2013-08-17 22:06:00,82.9,76.8,30.07,ESE,102,0.0,3.0,82,0.00,,,0.00,meteohub,2013-08-18 02:06:00,
2013-08-17 22:11:00,82.8,76.6,30.07,East,94,0.0,2.0,82,0.00,,,0.00,meteohub,2013-08-18 02:11:00,
2013-08-17 22:16:00,82.8,76.6,30.07,ENE,60,0.0,2.0,82,0.00,,,0.00,meteohub,2013-08-18 02:16:00,
2013-08-17 22:21:00,82.8,77.0,30.07,ESE,109,0.0,5.0,83,0.00,,,0.00,meteohub,2013-08-18 02:21:00,
2013-08-17 22:26:00,82.8,76.6,30.07,SE,131,0.0,5.0,82,0.00,,,0.00,meteohub,2013-08-18 02:26:00,
2013-08-17 22:31:00,82.6,76.8,30.08,NNE,26,0.0,5.0,83,0.00,,,0.00,meteohub,2013-08-18 02:31:00,
2013-08-17 22:36:00,82.6,76.8,30.08,SSE,157,0.0,3.0,83,0.00,,,0.00,meteohub,2013-08-18 02:36:00,
2013-08-17 22:41:00,82.6,76.8,30.08,East,83,1.0,3.0,83,0.00,,,0.00,meteohub,2013-08-18 02:41:00,
2013-08-17 22:46:00,82.6,76.8,30.08,NE,49,3.0,3.0,83,0.00,,,0.00,meteohub,2013-08-18 02:46:00,
2013-08-17 22:51:00,82.6,76.8,30.08,East,88,0.0,3.0,83,0.00,,,0.00,meteohub,2013-08-18 02:51:00,
2013-08-17 22:56:00,82.6,76.8,30.09,NE,42,0.0,3.0,83,0.00,,,0.00,meteohub,2013-08-18 02:56:00,
2013-08-17 23:01:00,82.6,76.8,30.09,NNE,30,0.0,3.0,83,0.00,,,0.00,meteohub,2013-08-18 03:01:00,
2013-08-17 23:06:00,82.6,76.8,30.09,SE,130,2.0,4.0,83,0.00,,,0.00,meteohub,2013-08-18 03:06:00,
2013-08-17 23:11:00,82.6,76.8,30.09,NW,323,0.0,5.0,83,0.00,,,0.00,meteohub,2013-08-18 03:11:00,
2013-08-17 23:16:00,82.6,76.5,30.09,SE,133,0.0,5.0,82,0.00,,,0.00,meteohub,2013-08-18 03:16:00,
2013-08-17 23:21:00,82.6,76.5,30.08,SE,142,0.0,7.0,82,0.00,,,0.00,meteohub,2013-08-18 03:21:00,
2013-08-17 23:26:00,82.6,76.1,30.08,ESE,117,0.0,7.0,81,0.00,,,0.00,meteohub,2013-08-18 03:26:00,
2013-08-17 23:31:00,82.6,76.5,30.08,SSE,154,0.0,7.0,82,0.00,,,0.00,meteohub,2013-08-18 03:31:00,
2013-08-17 23:36:00,82.6,76.5,30.08,South,170,0.0,5.0,82,0.00,,,0.00,meteohub,2013-08-18 03:36:00,
2013-08-17 23:41:00,82.4,76.3,30.08,ESE,109,0.0,5.0,82,0.00,,,0.00,meteohub,2013-08-18 03:41:00,
2013-08-17 23:46:00,82.4,76.3,30.08,NNE,13,2.0,4.0,82,0.00,,,0.00,meteohub,2013-08-18 03:46:00,
2013-08-17 23:51:00,82.4,76.6,30.08,ENE,76,1.0,5.0,83,0.00,,,0.00,meteohub,2013-08-18 03:51:00,
2013-08-17 23:56:00,82.2,76.5,30.08,NNE,30,5.0,5.0,83,0.00,,,0.00,meteohub,2013-08-18 03:56:00,